EW9044 Weather Reports


time (UTC)temp
C
wind
direction
speed
KPH
gust
KPH
rain 1hr
cm
rain 24hr
cm
rain mn
cm
humidity
%
barometer
mb
20260502213027 21 0.0 0.0 0.00 0.00 0.00 28 1009.7
20260502211533 21 0.0 0.0 0.00 0.00 0.00 28 1009.8
20260502210022 21 0.0 0.0 0.00 0.00 0.00 28 1010.1
20260502204525 21 0.0 0.0 0.00 0.00 0.00 29 1010.4
20260502203016 20 0.0 0.0 0.00 0.00 0.00 30 1010.8
20260502201511 20 0.0 0.0 0.00 0.00 0.00 30 1011.1
20260502200013 19 0.0 0.0 0.00 0.00 0.00 29 1011.4
20260502194512 18 0.0 0.0 0.00 0.00 0.00 31 1011.8
20260502193004 18 0.0 0.0 0.00 0.00 0.00 30 1012.1
20260502191603 17 0.0 0.0 0.00 0.00 0.00 32 1012.4
20260502190057 17 0.0 0.0 0.00 0.00 0.00 31 1012.8
20260502184556 17 0.0 0.0 0.00 0.00 0.00 31 1013.1
20260502183051 17 0.0 0.0 0.00 0.00 0.00 31 1013.4
20260502181549 16 0.0 0.0 0.00 0.00 0.00 32 1013.6
20260502163038 13 0.0 0.0 0.00 0.00 0.00 35 1015.4
20260502161534 13 0.0 0.0 0.00 0.00 0.00 38 1015.7
20260502151509 12 0.0 0.0 0.00 0.00 0.00 47 1016.2
20260502123059 4 0.0 0.0 0.00 0.00 0.00 65 1016.8
20260502121535 3 0.0 0.0 0.00 0.00 0.00 67 1016.7
20260502114534 3 0.0 0.0 0.00 0.00 0.00 69 1016.6
20260502113039 3 0.0 0.0 0.00 0.00 0.00 66 1016.5
20260502111531 3 0.0 0.0 0.00 0.00 0.00 65 1016.5
20260502110030 4 0.0 0.0 0.00 0.00 0.00 64 1016.4
20260502104532 4 0.0 0.0 0.00 0.00 0.00 64 1016.6
20260502103027 4 0.0 0.0 0.00 0.00 0.00 63 1016.4
20260502101527 4 0.0 0.0 0.00 0.00 0.00 62 1016.5
20260502091524 5 0.0 0.0 0.00 0.00 0.00 61 1016.4
20260502071512 5 0.0 0.0 0.00 0.00 0.00 62 1016.6
20260502070016 5 0.0 0.0 0.00 0.00 0.00 61 1016.6
20260502064510 5 0.0 0.0 0.00 0.00 0.00 61 1016.7
20260502063007 5 0.0 0.0 0.00 0.00 0.00 59 1016.7
20260502061506 5 0.0 0.0 0.00 0.00 0.00 59 1016.8
20260502060004 5 0.0 0.0 0.00 0.00 0.00 59 1016.7
20260502054502 5 0.0 0.0 0.00 0.00 0.00 59 1016.8
20260502053001 5 0.0 0.0 0.00 0.00 0.00 57 1016.7
20260502051608 6 0.0 0.0 0.00 0.00 0.00 57 1016.7
20260502050058 6 0.0 0.0 0.00 0.00 0.00 58 1016.7
20260502044618 6 0.0 0.0 0.00 0.00 0.00 55 1016.6
20260502043102 6 0.0 0.0 0.00 0.00 0.00 54 1016.6
20260502041556 6 0.0 0.0 0.00 0.00 0.00 52 1016.5
20260502034555 7 0.0 0.0 0.00 0.00 0.00 51 1016.7
20260502033054 7 0.0 0.0 0.00 0.00 0.00 50 1016.7
20260502031554 7 0.0 0.0 0.00 0.00 0.00 50 1016.8
20260502030054 7 0.0 0.0 0.00 0.00 0.00 48 1016.7
20260502024553 7 0.0 0.0 0.00 0.00 0.00 48 1016.6
20260502023052 7 0.0 0.0 0.00 0.00 0.00 46 1016.6
20260502021552 8 0.0 0.0 0.00 0.00 0.00 47 1016.5
20260502020056 8 0.0 0.0 0.00 0.00 0.00 45 1016.5
20260502014552 9 0.0 0.0 0.00 0.00 0.00 44 1016.2
20260502013050 10 0.0 0.0 0.00 0.00 0.00 43 1016.2
20260502011551 10 0.0 0.0 0.00 0.00 0.00 40 1016.0
20260502010050 11 0.0 0.0 0.00 0.00 0.00 38 1016.1
20260502004549 11 0.0 0.0 0.00 0.00 0.00 37 1016.0
20260502003049 11 0.0 0.0 0.00 0.00 0.00 36 1016.0
20260502001553 11 0.0 0.0 0.00 0.00 0.00 37 1016.0
20260502000056 11 0.0 0.0 0.00 0.00 0.00 37 1015.8
20260501234547 11 0.0 0.0 0.00 0.00 0.00 35 1016.0
20260501233047 12 0.0 0.0 0.00 0.00 0.00 35 1015.9
20260501231553 12 0.0 0.0 0.00 0.00 0.00 37 1016.0
20260501230045 12 0.0 0.0 0.00 0.00 0.00 35 1016.0
20260501224545 13 0.0 0.0 0.00 0.00 0.00 32 1015.9
20260501223047 12 0.0 0.0 0.00 0.00 0.00 34 1016.0
20260501221553 12 0.0 0.0 0.00 0.00 0.00 34 1016.1
20260501220044 12 0.0 0.0 0.00 0.00 0.00 32 1016.2
20260501214548 12 0.0 0.0 0.00 0.00 0.00 34 1016.1
20260501213041 12 0.0 0.0 0.00 0.00 0.00 33 1016.2